Terug naar catalogus

JILIN-01 GAOFEN 3F

ActiefWetenschapSSO
NORAD 46458·PAYLOAD·🇨🇳 China

Gelanceerd Sep 15, 2020 vanaf Yellow Sea Launch Area

Loading…

Volgende Passages (komende 24 uur)

TLE

VersSource: Space-Track

Epoch: Sep 14, 2026, 13:59 UTC

1 46458U 20065E   26257.58281024  .00075751  00000-0  58691-3 0  9999
2 46458  97.2051 309.7578 0010665 166.0977 194.0583 15.71545685333697

Volg JILIN-01 GAOFEN 3F in realtime met AllMySat

Download on the App Store